Home > Weather > Warsaw > Past weeks

Flag for Poland Weather for the Past 2 Weeks in Warsaw, Poland

Now
52 °F

Sunny.


Feels Like: 50 °F
Forecast: 43 / 66 °F
Wind: 6 mph from Northeast

Location: Warsaw Okecie Airport

Current Time: May 1, 2016 at 9:25:33 PM

Latest Report: May 1, 2016 at 9:00 PM


Visibility: 10 mi

Pressure: 30.21 "Hg

Humidity: 67%

Dew Point: 41 °F

Location of WarsawLocation

Historic Weather in Warsaw — Graph

°F

Warsaw Temperature Yesterday

Maximum temperature yesterday: 54 °F (at 11:30 AM)
Minimum temperature yesterday: 41 °F (at 4:30 AM)
Average temperature yesterday: 49 °F

High & Low Weather Summary for the Past Weeks

 TemperatureHumidityPressure
High72 °F (Apr 17, 12:00 PM)100% (Apr 17, 3:00 AM)30.24 "Hg (Apr 17, 3:00 AM)
Low32 °F (Apr 21, 1:00 AM)23% (Apr 26, 4:00 PM)29.59 "Hg (Apr 24, 12:00 AM)
Average48 °F64%29.93 "Hg
* Reported Apr 16 8:00 PM — May 1 8:00 PM, Warsaw, Weather by CustomWeather, © 2016

Note: Actual official high and low records may vary slightly from our data, if they occured in-between our weather recording intervals... More about our weather records

Advertising

Warsaw Weather History for the Previous 24 Hours

Scroll right to see more
 ConditionsComfort  
Time TempWeatherWind HumidityBarometerVisibility
8:00 PM
Sun, May 1
55 °FPassing clouds.5 mph59%30.18 "HgN/A
7:30 PM55 °FSunny.8 mph59%30.18 "Hg10 mi
7:00 PM57 °FSunny.8 mph51%30.18 "Hg10 mi
6:30 PM57 °FPassing clouds.7 mph51%30.18 "HgN/A
6:00 PM59 °FPassing clouds.3 mph48%30.18 "HgN/A
5:30 PM59 °FPassing clouds.5 mph45%30.18 "HgN/A
5:00 PM57 °FPassing clouds.5 mph51%30.18 "HgN/A
4:30 PM57 °FScattered clouds.6 mph51%30.18 "HgN/A
4:00 PM59 °FPartly sunny.6 mph48%30.18 "HgN/A
3:30 PM57 °FScattered clouds.5 mph51%30.21 "HgN/A
3:00 PM57 °FPartly sunny.6 mph51%30.21 "HgN/A
2:30 PM55 °FPartly sunny.6 mph55%30.21 "HgN/A
2:00 PM55 °FPartly sunny.2 mph55%30.21 "HgN/A
1:30 PM54 °FPartly sunny.3 mph63%30.21 "HgN/A
1:00 PM54 °FPartly sunny.3 mph63%30.21 "HgN/A
12:30 PM54 °FPartly sunny.3 mph63%30.18 "HgN/A
12:00 PM54 °FPartly sunny.3 mph58%30.18 "HgN/A
11:30 AM54 °FPartly sunny.5 mph58%30.18 "HgN/A
11:00 AM54 °FBroken clouds.3 mph63%30.18 "HgN/A
10:30 AM54 °FBroken clouds.3 mph63%30.21 "HgN/A
10:00 AM52 °FPartly sunny.3 mph72%30.21 "HgN/A
9:00 AM50 °FPartly sunny.3 mph82%30.21 "HgN/A
8:30 AM50 °FPartly sunny.2 mph76%30.21 "HgN/A
8:00 AM48 °FPartly sunny.1 mph82%30.18 "HgN/A
7:30 AM48 °FPartly sunny.3 mph82%30.18 "HgN/A
6:30 AM48 °FPartly sunny.6 mph82%30.18 "HgN/A
6:00 AM48 °FPassing clouds.3 mph82%30.18 "HgN/A
5:00 AM48 °FPassing clouds.3 mph82%30.15 "HgN/A
4:30 AM48 °FPassing clouds.5 mph82%30.15 "HgN/A
4:00 AM48 °FPassing clouds.3 mph82%30.15 "HgN/A
3:30 AM48 °FPassing clouds.3 mph82%30.15 "HgN/A
3:00 AM50 °FPassing clouds.2 mph76%30.15 "HgN/A
2:00 AM50 °FPassing clouds.3 mph76%30.15 "HgN/A
1:30 AM50 °FPassing clouds.5 mph76%30.15 "HgN/A
1:00 AM50 °FPassing clouds.3 mph76%30.15 "HgN/A
12:00 AM50 °FPassing clouds.5 mph76%30.15 "HgN/A
11:30 PM
Sat, Apr 30
50 °FPassing clouds.5 mph76%30.15 "HgN/A
11:00 PM50 °FPassing clouds.3 mph76%30.15 "HgN/A
10:30 PM50 °FPassing clouds.6 mph76%30.15 "HgN/A
10:00 PM50 °FPassing clouds.7 mph71%30.15 "HgN/A
9:30 PM50 °FPassing clouds.5 mph71%30.18 "HgN/A
9:00 PM50 °FPassing clouds.5 mph71%30.15 "HgN/A
Weather by CustomWeather, © 2016

See weather overviewHow to use our weather pages